[[{"header":{"parameterUnit":"m.s-1","parameterCategory":1,"la1":30.2991,"la2":30.254,"lo1":-89.0895,"lo2":-89.0444,"dy":0.0017,"dx":0.0017,"nx":28,"ny":28,"refTime":"2025-08-25T03:00:00:Z","depth":0,"parameterNumber":2,"parameterNumberName":"U-component_of_WINDS"},"data":[0,0,0,0,0,0,0,0,0,0,0,0,0,0,0,0,0,0,0,0,0,0,0,0,0,0,0,0,0,0,0,0,0,0,0,0,0,0,0,0,0,0,0,0,0,0,0,0,0,0,0,0,0,0,0,0,0,0,-4.701,-4.7011,0,-4.7044,-4.7044,-4.7045,-4.694,-4.6937,-4.6934,-4.6931,-4.6963,-4.6966,-4.697,0,0,0,0,0,0,0,0,0,0,0,0,0,-4.6856,-4.6859,-4.701,-4.7011,-4.7011,-4.7044,-4.7044,-4.7045,-4.6941,-4.6937,-4.6933,-4.6929,-4.6961,-4.6966,-4.697,0,0,0,0,0,0,0,0,0,0,0,0,0,-4.6909,-4.686,-4.701,-4.6963,-4.6959,-4.7044,-4.7044,-4.7045,-4.6942,-4.6937,-4.6932,-4.6928,-4.696,-4.6965,-4.6971,-4.7101,0,0,-4.6988,-4.6991,0,0,0,0,0,0,0,0,-4.6907,-4.6915,-4.697,-4.6967,-4.6963,-4.6983,-4.7001,-4.7064,-4.6943,-4.6948,-4.6931,-4.6925,-4.6973,-4.6977,-4.6994,-4.7103,-4.7104,-4.6989,-4.6992,-4.6995,-4.6996,0,0,0,0,0,0,0,-4.6903,-4.6913,-4.7023,-4.6971,-4.6966,-4.694,-4.6943,-4.7013,-4.6987,-4.6947,-4.694,-4.6946,-4.697,-4.6989,-4.6994,-4.7105,-4.6989,-4.6994,-4.6997,-4.7,-4.7325,-4.733,0,0,0,0,0,0,-4.6906,-4.6911,-4.7022,-4.7025,-4.6922,-4.6947,-4.695,-4.6981,-4.6986,-4.6982,-4.695,-4.6941,-4.6981,-4.6987,-4.6995,-4.7149,-4.6995,-4.7,-4.7003,-4.732,-4.7326,-4.7332,0,0,0,0,0,0,-4.6903,-4.6917,-4.7021,-4.6966,-4.6977,-4.6955,-4.6991,-4.6984,-4.7003,-4.6987,-4.6982,-4.6973,-4.6978,-4.6987,-4.7076,-4.7148,-4.7003,-4.7008,-4.7314,-4.7322,-4.7329,-4.7457,0,0,0,0,0,0,-4.6899,-4.6916,-4.6965,-4.6968,-4.6981,-4.7103,-4.6995,-4.6989,-4.7013,-4.7002,-4.7008,-4.7005,-4.6975,-4.7069,-4.7082,-4.7153,-4.7012,-4.7307,-4.7317,-4.7327,-4.7446,-4.7468,-4.7487,0,0,0,0,0,-4.6894,-4.6999,-4.6968,-4.6982,-4.7041,-4.7107,-4.7114,-4.7078,-4.702,-4.7069,-4.706,-4.7005,-4.7139,-4.7079,-4.7093,-4.7167,-4.7302,-4.7314,-4.7326,-4.7437,-4.7464,-4.7487,0,0,0,0,0,0,-4.7003,-4.6998,-4.6964,-4.7073,-4.7092,-4.7089,-4.7149,-4.7107,-4.7142,-4.7129,-4.7083,-4.7085,-4.7184,-4.7184,-4.7117,-4.7295,-4.7211,-4.7226,-4.729,-4.7316,-4.7336,-4.7333,-4.7017,0,0,0,0,0,-4.704,-4.7095,-4.7087,-4.7184,-4.7195,-4.7172,-4.7199,-4.717,-4.7186,-4.7193,-4.719,-4.7208,-4.7254,-4.7285,-4.7327,-4.7447,-4.7447,-4.7506,-4.7526,-4.7543,-4.7556,-4.7621,-4.7647,-4.7371,-4.737,-4.737,0,0,-4.7117,-4.7121,-4.7157,-4.7206,-4.7217,-4.7274,-4.7178,-4.7242,-4.7284,-4.7202,-4.7287,-4.7287,-4.7303,-4.741,-4.7456,-4.7413,-4.7633,-4.7558,-4.7572,-4.7575,-4.7636,-4.7662,-4.7686,-4.7378,-4.7377,-4.7376,0,0,-4.7285,-4.7294,-4.7376,-4.7391,-4.7409,-4.7393,-4.7414,-4.7419,-4.7416,-4.7501,-4.7441,-4.7491,-4.7571,-4.7586,-4.7604,-4.7784,-4.7735,-4.7799,-4.7905,-4.7969,-4.7991,-4.801,-4.8074,-4.8098,-4.7813,-4.7813,-4.7813,0,-4.7377,-4.7461,-4.7424,-4.7493,-4.7517,-4.7449,-4.7532,-4.7547,-4.7578,-4.7596,-4.7549,-4.765,-4.7656,-4.7766,-4.781,-4.7828,-4.7849,-4.7797,-4.7991,-4.801,-4.8027,-4.8088,-4.8112,-4.7821,-4.782,-4.7819,-4.7818,0,-4.7574,-4.7634,-4.7698,-4.7732,-4.7763,-4.7839,-4.7814,-4.7851,-4.7821,-4.7811,-4.7899,-4.7906,-4.7948,-4.7973,-4.7943,-4.8079,-4.8052,-4.7999,-4.7913,-4.8062,-4.8118,-4.8141,-4.7832,-4.7829,-4.7827,-4.7825,0,0,-4.7807,-4.7824,-4.7848,-4.7863,-4.7881,-4.7926,-4.8001,-4.8044,-4.8076,-4.8101,-4.8162,-4.8234,-4.8186,-4.8207,-4.8179,-4.8236,-4.8379,-4.8176,-4.8176,-4.8213,-4.853,-4.8569,-4.8596,-4.8348,-4.8353,-4.8356,-4.8529,0,-4.7973,-4.81,-4.8071,-4.8197,-4.8252,-4.8191,-4.8255,-4.8274,-4.8268,-4.8313,-4.8306,-4.8358,-4.8291,-4.8303,-4.8357,-4.835,-4.8442,-4.8338,-4.8404,-4.8407,-4.8399,-4.8625,-4.8666,-4.8828,-4.855,-4.8554,-4.8557,0,-4.8181,-4.8217,-4.8349,-4.8361,-4.8383,-4.8441,-4.848,-4.8525,-4.8546,-4.8537,-4.8564,-4.8526,-4.86,-4.8516,-4.8618,-4.8548,-4.8574,-4.8575,-4.8581,-4.8583,-4.8489,-4.8633,-4.8879,-4.8902,-4.8591,-4.8588,-4.8586,0,-4.8338,-4.8419,-4.8509,-4.8524,-4.854,-4.8583,-4.8592,-4.8608,-4.8637,-4.8671,-4.869,-4.8733,-4.8755,-4.879,-4.8765,-4.8706,-4.8871,-4.8784,-4.8866,-4.8867,-4.89,-4.8898,-4.9152,-4.8921,-4.8921,-4.892,-4.892,0,-4.8524,-4.8607,-4.858,-4.8635,-4.8726,-4.8694,-4.8785,-4.8787,-4.8803,-4.8857,-4.8807,-4.8859,-4.8824,-4.8874,-4.8856,-4.8943,-4.8954,-4.8949,-4.8943,-4.8952,-4.8953,-4.8966,-4.8954,-4.8927,-4.8925,-4.8924,-4.8923,0,-4.8713,-4.8698,-4.8792,-4.8801,-4.8806,-4.8873,-4.888,-4.8932,-4.8924,-4.8994,-4.9008,-4.8996,-4.9052,-4.9032,-4.9091,-4.9079,-4.919,-4.917,-4.9184,-4.9178,-4.926,-4.9252,-4.9529,-4.9564,-4.9313,-4.9315,-4.9317,0,-4.8831,-4.8894,-4.8912,-4.8945,-4.8958,-4.9013,-4.9043,-4.9015,-4.9049,-4.9079,-4.9128,-4.918,-4.922,-4.9313,-4.9309,-4.9355,-4.9334,-4.9429,-4.9341,-4.9349,-4.9335,-4.933,-4.9337,-4.9445,-4.9448,-4.9451,-4.9453,0,-4.9043,-4.9034,-4.908,-4.9126,-4.9164,-4.9198,-4.9227,-4.9257,-4.9231,-4.9272,-4.9329,-4.9361,-4.9424,-4.9477,-4.9519,-4.9528,-4.9486,-4.9482,-4.9502,-4.9511,-4.9516,-4.9514,-4.923,-4.9474,-4.9472,-4.947,-4.9469,-4.9468,-4.9199,-4.9253,-4.9275,-4.9329,-4.9349,-4.9378,-4.9428,-4.9428,-4.9476,-4.9525,-4.9506,-4.9574,-4.9595,-4.9648,-4.9664,-4.9716,-4.9679,-4.971,-4.9717,-4.9724,-4.9735,-4.9511,-4.9724,-4.9723,-4.9722,-4.9722,-4.9721,0,-4.9408,-4.942,-4.947,-4.9514,-4.9558,-4.9518,-4.9549,-4.9588,-4.9648,-4.9673,-4.9714,-4.9782,-4.9835,-4.9837,-4.9885,-4.9927,-4.9909,-4.9941,-4.9936,-4.9939,-4.9765,-4.9741,-4.9954,-4.9954,-4.9954,-4.9954,-4.9954,-4.9954,-4.9521,-4.961,-4.9604,-4.9704,-4.9715,-4.9781,-4.9803,-4.983,-4.985,-4.9929,-4.9973,-4.9975,-4.9991,-5.0041,-5.0088,-5.0087,-5.0107,-5.0145,-5.0137,-4.9974,-4.9951,-4.9929,-4.9906,-5.015,-5.015,-5.0306,-5.0308,-5.0309]},{"header":{"parameterUnit":"m.s-1","parameterCategory":1,"la1":30.2991,"la2":30.254,"lo1":-89.0895,"lo2":-89.0444,"dy":0.0017,"dx":0.0017,"nx":28,"ny":28,"refTime":"2025-08-25T03:00:00:Z","depth":0,"parameterNumber":3,"parameterNumberName":"V-component_of_WINDS"},"data":[0,0,0,0,0,0,0,0,0,0,0,0,0,0,0,0,0,0,0,0,0,0,0,0,0,0,0,0,0,0,0,0,0,0,0,0,0,0,0,0,0,0,0,0,0,0,0,0,0,0,0,0,0,0,0,0,0,0,-0.341,-0.341,0,-0.3389,-0.3389,-0.3388,-0.3369,-0.3369,-0.3368,-0.3368,-0.3349,-0.3349,-0.3349,0,0,0,0,0,0,0,0,0,0,0,0,0,-0.3434,-0.3433,-0.341,-0.341,-0.341,-0.3389,-0.3389,-0.3388,-0.3369,-0.3369,-0.3368,-0.3368,-0.3349,-0.3349,-0.3349,0,0,0,0,0,0,0,0,0,0,0,0,0,-0.3419,-0.3433,-0.341,-0.3397,-0.3396,-0.3389,-0.3389,-0.3388,-0.3369,-0.3369,-0.3368,-0.3368,-0.3349,-0.3349,-0.3348,-0.3353,0,0,-0.3347,-0.3347,0,0,0,0,0,0,0,0,-0.342,-0.3418,-0.3399,-0.3398,-0.3397,-0.3381,-0.339,-0.3377,-0.3369,-0.3379,-0.3368,-0.3368,-0.336,-0.3359,-0.3356,-0.3352,-0.3352,-0.3347,-0.3347,-0.3347,-0.3347,0,0,0,0,0,0,0,-0.3421,-0.3419,-0.3402,-0.3399,-0.3397,-0.3393,-0.339,-0.3387,-0.3372,-0.3378,-0.3377,-0.3375,-0.3359,-0.3356,-0.3355,-0.3351,-0.3347,-0.3347,-0.3347,-0.3346,-0.3348,-0.3348,0,0,0,0,0,0,-0.3424,-0.342,-0.3402,-0.3401,-0.3408,-0.3392,-0.339,-0.3387,-0.3372,-0.337,-0.3375,-0.3374,-0.3357,-0.3356,-0.3354,-0.3357,-0.3347,-0.3346,-0.3346,-0.3347,-0.3348,-0.3348,0,0,0,0,0,0,-0.3424,-0.3422,-0.3403,-0.341,-0.3407,-0.3392,-0.3389,-0.3386,-0.3383,-0.3369,-0.3367,-0.3375,-0.3357,-0.3355,-0.3353,-0.3357,-0.3346,-0.3346,-0.3347,-0.3347,-0.3348,-0.3364,0,0,0,0,0,0,-0.3425,-0.3423,-0.3425,-0.341,-0.3407,-0.3402,-0.3389,-0.3386,-0.3382,-0.338,-0.3368,-0.3366,-0.3356,-0.3354,-0.3352,-0.3356,-0.3345,-0.3347,-0.3347,-0.3348,-0.3364,-0.3365,-0.3367,0,0,0,0,0,-0.3426,-0.3432,-0.3425,-0.3423,-0.3409,-0.3403,-0.3401,-0.3389,-0.3383,-0.3384,-0.3375,-0.3366,-0.3356,-0.3354,-0.3352,-0.3355,-0.3346,-0.3347,-0.3348,-0.3363,-0.3365,-0.3367,0,0,0,0,0,0,-0.3449,-0.343,-0.3422,-0.3423,-0.3414,-0.3399,-0.3401,-0.3392,-0.3386,-0.3385,-0.337,-0.3368,-0.3367,-0.3361,-0.3358,-0.3358,-0.335,-0.335,-0.3362,-0.3364,-0.3366,-0.3367,-0.3345,0,0,0,0,0,-0.3453,-0.3449,-0.3433,-0.3435,-0.3431,-0.3417,-0.3413,-0.3404,-0.3395,-0.3392,-0.3383,-0.3375,-0.3369,-0.3366,-0.3361,-0.3362,-0.3358,-0.3363,-0.3365,-0.3367,-0.3367,-0.3365,-0.3367,-0.335,-0.335,-0.335,0,0,-0.3464,-0.3453,-0.3452,-0.3439,-0.3432,-0.3427,-0.3414,-0.3411,-0.3407,-0.3392,-0.3389,-0.3381,-0.3371,-0.337,-0.3369,-0.3365,-0.3371,-0.3367,-0.3369,-0.3369,-0.3366,-0.3368,-0.3369,-0.335,-0.335,-0.335,0,0,-0.3481,-0.3472,-0.3472,-0.3464,-0.3451,-0.3441,-0.3441,-0.3426,-0.342,-0.3416,-0.3404,-0.3399,-0.3391,-0.3384,-0.3379,-0.3388,-0.338,-0.3387,-0.3396,-0.3395,-0.3396,-0.3397,-0.3399,-0.3401,-0.3388,-0.3388,-0.3388,0,-0.3496,-0.3489,-0.3474,-0.347,-0.3464,-0.3448,-0.3447,-0.344,-0.3427,-0.3423,-0.3418,-0.3405,-0.3397,-0.3393,-0.3395,-0.3392,-0.3391,-0.3389,-0.3397,-0.3398,-0.3399,-0.3401,-0.3402,-0.3388,-0.3388,-0.3388,-0.3388,0,-0.3507,-0.3502,-0.3503,-0.3488,-0.3483,-0.3481,-0.3465,-0.3461,-0.3452,-0.3442,-0.3437,-0.3426,-0.3417,-0.3415,-0.3407,-0.3409,-0.3407,-0.3399,-0.3391,-0.3401,-0.3403,-0.3404,-0.339,-0.3389,-0.3389,-0.3389,0,0,-0.354,-0.3514,-0.3515,-0.3507,-0.3491,-0.3486,-0.3483,-0.3472,-0.3468,-0.3459,-0.3455,-0.3446,-0.3438,-0.3433,-0.3423,-0.3422,-0.3428,-0.3414,-0.3414,-0.3417,-0.3428,-0.3433,-0.3434,-0.3422,-0.3422,-0.3422,-0.3428,0,-0.3554,-0.3545,-0.353,-0.3527,-0.3521,-0.3503,-0.35,-0.3489,-0.3479,-0.3472,-0.3461,-0.3454,-0.3445,-0.3441,-0.3439,-0.3428,-0.343,-0.3427,-0.3418,-0.3417,-0.3421,-0.3435,-0.3442,-0.3449,-0.3429,-0.3429,-0.3429,0,-0.357,-0.3559,-0.3554,-0.3535,-0.3532,-0.3529,-0.3517,-0.3511,-0.3497,-0.349,-0.3481,-0.347,-0.3464,-0.3456,-0.3447,-0.3445,-0.344,-0.3434,-0.3434,-0.3433,-0.3424,-0.3435,-0.3451,-0.3452,-0.343,-0.343,-0.343,0,-0.3593,-0.3577,-0.3572,-0.3566,-0.3544,-0.3542,-0.3532,-0.3518,-0.3512,-0.3501,-0.3496,-0.3486,-0.348,-0.3471,-0.3457,-0.3452,-0.3449,-0.344,-0.3442,-0.3442,-0.3443,-0.3443,-0.3458,-0.344,-0.344,-0.344,-0.344,0,-0.361,-0.3608,-0.3582,-0.3579,-0.3575,-0.3556,-0.3553,-0.3542,-0.3529,-0.3523,-0.3508,-0.3502,-0.3483,-0.3475,-0.3464,-0.3457,-0.3455,-0.3449,-0.3446,-0.345,-0.3451,-0.3447,-0.3446,-0.344,-0.344,-0.344,-0.344,0,-0.3636,-0.3619,-0.3612,-0.359,-0.3584,-0.3582,-0.3564,-0.3559,-0.3547,-0.3539,-0.3536,-0.3517,-0.3506,-0.349,-0.3476,-0.3468,-0.3463,-0.3459,-0.3468,-0.3466,-0.3469,-0.3468,-0.3482,-0.3482,-0.3464,-0.3464,-0.3464,0,-0.3649,-0.3646,-0.3623,-0.3617,-0.3608,-0.3599,-0.3591,-0.3572,-0.3565,-0.3547,-0.3545,-0.3533,-0.3522,-0.3506,-0.3491,-0.3479,-0.3474,-0.3479,-0.3472,-0.3476,-0.3473,-0.3473,-0.3472,-0.3481,-0.3482,-0.3482,-0.3482,0,-0.3672,-0.3662,-0.3652,-0.3637,-0.3628,-0.3616,-0.3604,-0.36,-0.3578,-0.3571,-0.3559,-0.355,-0.3533,-0.3521,-0.3507,-0.3497,-0.3486,-0.3484,-0.3484,-0.3488,-0.3493,-0.349,-0.3472,-0.3484,-0.3484,-0.3484,-0.3484,-0.3484,-0.3691,-0.3687,-0.3669,-0.3657,-0.3645,-0.3633,-0.3627,-0.3612,-0.3601,-0.3586,-0.3575,-0.3563,-0.3547,-0.3526,-0.3516,-0.3507,-0.3502,-0.3502,-0.3502,-0.3502,-0.3503,-0.3494,-0.3504,-0.3504,-0.3504,-0.3504,-0.3504,0,-0.3713,-0.37,-0.3688,-0.367,-0.366,-0.3648,-0.3632,-0.3625,-0.3614,-0.36,-0.3588,-0.3574,-0.3561,-0.3543,-0.3529,-0.3525,-0.3519,-0.3522,-0.3522,-0.3519,-0.3509,-0.351,-0.3526,-0.3526,-0.3526,-0.3526,-0.3526,-0.3526,-0.3723,-0.3715,-0.3702,-0.3687,-0.3674,-0.3661,-0.3653,-0.3641,-0.3629,-0.3613,-0.3601,-0.3589,-0.3573,-0.3557,-0.3544,-0.3539,-0.3534,-0.3538,-0.3532,-0.3523,-0.3521,-0.3519,-0.352,-0.3538,-0.3538,-0.3543,-0.3543,-0.3543]}]]